Ozona, TX

2:35 AM CST on November 24, 2017 (GMT -0600)
Ozona Municipal

Weather History for KOZA - November, 2014

Change the Weather History Date:

Sunday, November 23, 2014

  Actual Average Record
Temperature  
Mean Temperature 58 °F -  
Max Temperature 75 °F 68 °F 75 °F (2014)
Min Temperature 41 °F 37 °F 26 °F (2015)
Degree Days  
Heating Degree Days 7    
Growing Degree Days 8 (Base 50)    
Moisture  
Dew Point 32 °F    
Average Humidity 47    
Maximum Humidity 87    
Minimum Humidity 17    
Precipitation  
Precipitation 0.00 in - - ()
Sea Level Pressure  
Sea Level Pressure 29.76 in    
Wind  
Wind Speed 8 mph (West)    
Max Wind Speed 30 mph    
Max Gust Speed 43 mph    
Visibility 10 miles    
Events      
Averages and records for this station are not official NWS values.
T = Trace of Precipitation, MM = Missing Value Source: NWS Daily Summary

Daily Weather History Graph

Daily Weather History Graph

Search for Another Location

Airport or City:

Trip Planner

Search our weather history database for the weather conditions in past years. The results will help you decide how hot, cold, wet, or windy it might be!

Date:

Astronomy

Nov. 23, 2014 Rise Set
Actual Time 7:18 AM CST 5:44 PM CST
Civil Twilight 6:52 AM CST 6:10 PM CST
Nautical Twilight 6:22 AM CST 6:39 PM CST
Astronomical Twilight 5:53 AM CST 7:08 PM CST
Moon 8:16 AM CST (11/23) 7:08 PM CST (11/23)
Length of Visible Light 11h 18m
Length of Day
10h 26m
New Moon, 2% of the Moon is Illuminated
Nov 23
New Moon
Nov 29
First Quarter
Dec 6
Full
Dec 14
Last Quarter
Dec 21
New

Hourly Weather History & Observations

Time (CST) Temp. Windchill Dew Point Humidity Pressure Visibility Wind Dir Wind Speed Gust Speed Precip Events Conditions
12:15 AM 42.8 °F - 39.2 °F 87% 29.81 in 10.0 mi Calm Calm - N/A   Clear
12:35 AM 42.8 °F - 37.4 °F 81% 29.80 in 10.0 mi Calm Calm - N/A   Clear
12:55 AM 42.8 °F 41.1 °F 39.2 °F 87% 29.80 in 10.0 mi WSW 3.5 mph - N/A   Clear
1:15 AM 41.0 °F - 37.4 °F 87% 29.79 in 10.0 mi Calm Calm - N/A   Clear
1:35 AM 42.8 °F - 39.2 °F 87% 29.78 in 10.0 mi Calm Calm - N/A   Clear
1:55 AM 42.8 °F 39.3 °F 37.4 °F 81% 29.76 in 10.0 mi WSW 5.8 mph - N/A   Clear
2:15 AM 48.2 °F - 41.0 °F 76% 29.75 in 10.0 mi WSW 4.6 mph - N/A   Clear
2:35 AM 46.4 °F 45.2 °F 41.0 °F 81% 29.74 in 10.0 mi SW 3.5 mph - N/A   Clear
2:55 AM 44.6 °F 42.2 °F 39.2 °F 81% 29.74 in 10.0 mi SSW 4.6 mph - N/A   Clear
3:15 AM 44.6 °F 43.1 °F 37.4 °F 76% 29.75 in 10.0 mi South 3.5 mph - N/A   Clear
3:35 AM 42.8 °F 40.1 °F 37.4 °F 81% 29.74 in 10.0 mi SSW 4.6 mph - N/A   Clear
3:50 AM 44.6 °F - 37.4 °F 76% 29.74 in 10.0 mi Calm Calm - N/A   Clear
4:15 AM 44.6 °F 42.2 °F 37.4 °F 76% 29.73 in 10.0 mi WSW 4.6 mph - N/A   Clear
4:30 AM 42.8 °F 40.1 °F 37.4 °F 81% 29.72 in 10.0 mi SSW 4.6 mph - N/A   Clear
4:55 AM 44.6 °F 40.7 °F 37.4 °F 76% 29.72 in 10.0 mi SW 6.9 mph - N/A   Clear
5:15 AM 44.6 °F 42.2 °F 37.4 °F 76% 29.72 in 10.0 mi SW 4.6 mph - N/A   Clear
5:35 AM 44.6 °F 41.4 °F 37.4 °F 76% 29.72 in 10.0 mi SSW 5.8 mph - N/A   Clear
5:55 AM 44.6 °F 40.2 °F 37.4 °F 76% 29.72 in 10.0 mi SSW 8.1 mph - N/A   Clear
6:15 AM 46.4 °F 42.9 °F 37.4 °F 71% 29.72 in 10.0 mi SSW 6.9 mph - N/A   Clear
6:35 AM 46.4 °F 43.5 °F 37.4 °F 71% 29.72 in 10.0 mi SSW 5.8 mph - N/A   Clear
6:55 AM 46.4 °F 43.5 °F 37.4 °F 71% 29.72 in 10.0 mi SSW 5.8 mph - N/A   Clear
7:15 AM 41.0 °F - 35.6 °F 81% 29.73 in 10.0 mi Calm Calm - N/A   Clear
7:35 AM 41.0 °F - 35.6 °F 81% 29.73 in 10.0 mi Calm Calm - N/A   Clear
7:55 AM 41.0 °F - 35.6 °F 81% 29.74 in 10.0 mi Calm Calm - N/A   Clear
8:15 AM 44.6 °F - 37.4 °F 76% 29.74 in 10.0 mi Calm Calm - N/A   Clear
8:35 AM 50.0 °F - 39.2 °F 66% 29.74 in 10.0 mi Calm Calm - N/A   Clear
8:50 AM 55.4 °F - 37.4 °F 51% 29.75 in 10.0 mi SW 3.5 mph - N/A   Clear
9:15 AM 60.8 °F - 35.6 °F 39% 29.76 in 10.0 mi WSW 9.2 mph - N/A   Clear
9:35 AM 62.6 °F - 35.6 °F 37% 29.76 in 10.0 mi WSW 11.5 mph 18.4 mph N/A   Clear
9:55 AM 64.4 °F - 35.6 °F 34% 29.76 in 10.0 mi SW 8.1 mph - N/A   Clear
10:15 AM 64.4 °F - 33.8 °F 32% 29.76 in 10.0 mi West 15.0 mph 19.6 mph N/A   Clear
10:35 AM 68.0 °F - 32.0 °F 26% 29.75 in 10.0 mi West 20.7 mph 31.1 mph N/A   Clear
10:55 AM 69.8 °F - 30.2 °F 23% 29.74 in 10.0 mi West 17.3 mph 27.6 mph N/A   Clear
11:15 AM 71.6 °F - 30.2 °F 22% 29.74 in 7.0 mi West 20.7 mph 31.1 mph N/A   Clear
11:35 AM 71.6 °F - 30.2 °F 22% 29.73 in 10.0 mi West 24.2 mph 33.4 mph N/A   Clear
11:55 AM 71.6 °F - 28.4 °F 20% 29.72 in 10.0 mi WNW 25.3 mph 34.5 mph N/A   Clear
12:15 PM 71.6 °F - 28.4 °F 20% 29.71 in 10.0 mi West 26.5 mph 34.5 mph N/A   Clear
12:35 PM 73.4 °F - 28.4 °F 19% 29.70 in 10.0 mi West 25.3 mph 36.8 mph N/A   Clear
12:55 PM 73.4 °F - 28.4 °F 19% 29.69 in 10.0 mi WNW 29.9 mph 42.6 mph N/A   Clear
1:10 PM 73.4 °F - 28.4 °F 19% 29.69 in 10.0 mi West 24.2 mph 36.8 mph N/A   Clear
1:35 PM 73.4 °F - 28.4 °F 19% 29.67 in 10.0 mi WNW 18.4 mph 32.2 mph N/A   Clear
1:55 PM 73.4 °F - 26.6 °F 18% 29.68 in 10.0 mi West 23.0 mph 33.4 mph N/A   Clear
2:15 PM 73.4 °F - 26.6 °F 18% 29.67 in 10.0 mi WNW 20.7 mph 34.5 mph N/A   Clear
2:35 PM 73.4 °F - 26.6 °F 18% 29.67 in 10.0 mi WNW 24.2 mph 29.9 mph N/A   Clear
2:55 PM 75.2 °F - 26.6 °F 17% 29.67 in 10.0 mi WNW 21.9 mph 32.2 mph N/A   Clear
3:15 PM 75.2 °F - 26.6 °F 17% 29.68 in 10.0 mi WNW 23.0 mph 32.2 mph N/A   Clear
3:35 PM 73.4 °F - 26.6 °F 18% 29.67 in 10.0 mi WNW 19.6 mph 32.2 mph N/A   Clear
3:55 PM 73.4 °F - 26.6 °F 18% 29.68 in 10.0 mi WNW 18.4 mph 31.1 mph N/A   Clear
4:15 PM 73.4 °F - 26.6 °F 18% 29.68 in 10.0 mi WNW 23.0 mph 33.4 mph N/A   Clear
4:35 PM 73.4 °F - 26.6 °F 18% 29.70 in 10.0 mi WNW 20.7 mph 29.9 mph N/A   Clear
4:50 PM 71.6 °F - 26.6 °F 19% 29.70 in 10.0 mi WNW 21.9 mph 28.8 mph N/A   Clear
5:15 PM 71.6 °F - 26.6 °F 19% 29.71 in 10.0 mi WNW 15.0 mph 27.6 mph N/A   Clear
5:35 PM 69.8 °F - 26.6 °F 20% 29.72 in 10.0 mi West 17.3 mph 23.0 mph N/A   Clear
5:55 PM 68.0 °F - 26.6 °F 21% 29.73 in 10.0 mi West 11.5 mph 17.3 mph N/A   Clear
6:10 PM 68.0 °F - 26.6 °F 21% 29.74 in 10.0 mi West 9.2 mph - N/A   Clear
6:35 PM 66.2 °F - 26.6 °F 23% 29.75 in 10.0 mi West 8.1 mph - N/A   Clear
6:55 PM 64.4 °F - 26.6 °F 24% 29.76 in 10.0 mi WNW 8.1 mph - N/A   Clear
7:15 PM 64.4 °F - 26.6 °F 24% 29.78 in 10.0 mi WNW 9.2 mph - N/A   Clear
7:35 PM 64.4 °F - 26.6 °F 24% 29.79 in 10.0 mi WNW 9.2 mph - N/A   Clear
7:55 PM 62.6 °F - 26.6 °F 26% 29.81 in 10.0 mi NNW 8.1 mph - N/A   Clear
8:15 PM 62.6 °F - 26.6 °F 26% 29.84 in 10.0 mi NNW 15.0 mph - N/A   Clear
8:35 PM 60.8 °F - 28.4 °F 29% 29.86 in 10.0 mi North 19.6 mph 26.5 mph N/A   Clear
8:55 PM 59.0 °F - 32.0 °F 36% 29.88 in 10.0 mi NNE 17.3 mph 26.5 mph N/A   Clear
9:15 PM 55.4 °F - 32.0 °F 41% 29.90 in 10.0 mi North 19.6 mph 26.5 mph N/A   Clear
9:35 PM 53.6 °F - 32.0 °F 44% 29.93 in 10.0 mi North 21.9 mph 31.1 mph N/A   Clear
9:55 PM 51.8 °F - 32.0 °F 47% 29.94 in 10.0 mi North 10.4 mph - N/A   Clear
10:15 PM 50.0 °F - 32.0 °F 50% 29.95 in 10.0 mi North 12.7 mph 20.7 mph N/A   Clear
10:30 PM 48.2 °F - 32.0 °F 54% 29.96 in 10.0 mi North 11.5 mph 18.4 mph N/A   Clear
10:55 PM 46.4 °F 41.1 °F 32.0 °F 57% 29.97 in 10.0 mi North 11.5 mph - N/A   Clear
11:15 PM 46.4 °F 41.5 °F 32.0 °F 57% 29.98 in 10.0 mi North 10.4 mph - N/A   Clear
11:35 PM 44.6 °F 40.7 °F 32.0 °F 61% 29.98 in 10.0 mi North 6.9 mph - N/A   Clear
11:55 PM 44.6 °F 42.2 °F 32.0 °F 61% 30.00 in 10.0 mi NNW 4.6 mph - N/A   Clear